QPF
0.00 0.00 0.00 0.00 0.00 0.00 0.00 0.00 0.00 0.00 0.00 0.00 0.00 0.00 0.00 0.00 0.00 0.00 0.00 0.00 0.00 0.00 0.00 0.00 0.00 0.00 0.00 0.00 0.00 0.00 0.00 0.00 0.00 0.00 0.00 0.00 0.00 0.00 0.00 0.00 0.00 0.00 0.00 0.00 0.00 0.00 0.00 0.00 0.00 0.00 0.00 0.00 0.00 0.00
0.00 0.00 0.00 0.00 0.00 0.00 0.00 0.00 0.00 0.00 0.00 0.00 0.00 0.00 0.00 0.00 0.00 0.00 0.00 0.00 0.00 0.00 0.00 0.00 0.00 0.00 0.00 0.00 0.00 0.00 0.00 0.00 0.00 0.00 0.00 0.00 0.00 0.00 0.01 0.00 0.00 0.02 0.01 0.01 0.01 0.00 0.01 0.00 0.00 0.00 0.00 0.00 0.00 0.00
0.00 0.00 0.00 0.00 0.00 0.00 0.00 0.00 0.00 0.00 0.00 0.00 0.00 0.00 0.00 0.00 0.00 0.00 0.00 0.00 0.00 0.00 0.00 0.00 0.00 0.00 0.00 0.00 0.00 0.00 0.00 0.00 0.00 0.00 0.00 0.00 0.00 0.01 0.01 0.00 0.00 0.01 0.02 0.01 0.01 0.02 0.04 0.02 0.01 0.00 0.00 0.00 0.00 0.00
0.00 0.00 0.00 0.00 0.00 0.00 0.00 0.00 0.00 0.00 0.00 0.00 0.00 0.00 0.00 0.00 0.00 0.00 0.00 0.00 0.00 0.00 0.00 0.00 0.00 0.00 0.00 0.00 0.00 0.00 0.00 0.00 0.00 0.00 0.00 0.00 0.00 0.01 0.01 0.00 0.00 0.00 0.03 0.04 0.02 0.01 0.02 0.02 0.02 0.01 0.00 0.00 0.00 0.00
0.00 0.00 0.00 0.00 0.00 0.00 0.00 0.00 0.00 0.00 0.00 0.00 0.00 0.00 0.00 0.00 0.00 0.00 0.00 0.00 0.00 0.00 0.00 0.00 0.00 0.00 0.00 0.00 0.00 0.00 0.00 0.00 0.00 0.00 0.00 0.00 0.00 0.00 0.00 0.00 0.00 0.00 0.01 0.06 0.16 0.06 0.01 0.00 0.00 0.00 0.00 0.00 0.00 0.00
0.00 0.00 0.00 0.00 0.00 0.00 0.00 0.00 0.00 0.00 0.00 0.00 0.00 0.00 0.00 0.00 0.00 0.00 0.00 0.00 0.00 0.00 0.00 0.00 0.00 0.00 0.00 0.00 0.00 0.00 0.00 0.00 0.00 0.00 0.00 0.00 0.00 0.00 0.00 0.00 0.00 0.00 0.05 0.15 0.22 0.05 0.00 0.00 0.00 0.00 0.00 0.00 0.00 0.00
0.00 0.00 0.00 0.00 0.00 0.00 0.00 0.00 0.00 0.00 0.00 0.00 0.00 0.00 0.00 0.00 0.00 0.00 0.00 0.00 0.00 0.00 0.00 0.00 0.00 0.00 0.00 0.00 0.00 0.00 0.00 0.00 0.00 0.00 0.00 0.02 0.04 0.01 0.00 0.00 0.00 0.00 0.00 0.01 0.00 0.00 0.00 0.00 0.00 0.00 0.00 0.00 0.00 0.00
0.00 0.00 0.00 0.00 0.00 0.00 0.00 0.00 0.00 0.00 0.00 0.00 0.00 0.00 0.00 0.00 0.00 0.00 0.00 0.00 0.00 0.00 0.00 0.00 0.00 0.00 0.00 0.00 0.00 0.00 0.00 0.00 0.00 0.00 0.00 0.01 0.01 0.00 0.00 0.00 0.00 0.00 0.00 0.00 0.03 0.04 0.02 0.00 0.00 0.00 0.00 0.00 0.00 0.00
0.00 0.00 0.00 0.00 0.00 0.00 0.00 0.00 0.00 0.00 0.00 0.00 0.00 0.00 0.00 0.00 0.00 0.00 0.00 0.00 0.00 0.00 0.00 0.00 0.00 0.00 0.00 0.00 0.00 0.00 0.00 0.00 0.00 0.00 0.00 0.00 0.01 0.01 0.00 0.00 0.00 0.00 0.00 0.00 0.00 0.00 0.00 0.00 0.00 0.00 0.00 0.00 0.00 0.00
0.00 0.00 0.00 0.00 0.00 0.00 0.00 0.00 0.00 0.00 0.00 0.00 0.00 0.00 0.00 0.00 0.00 0.00 0.00 0.00 0.00 0.00 0.00 0.00 0.00 0.00 0.00 0.00 0.00 0.00 0.00 0.00 0.00 0.00 0.00 0.03 0.06 0.10 0.04 0.00 0.00 0.00 0.01 0.00 0.00 0.00 0.00 0.01 0.00 0.00 0.00 0.00 0.00 0.00
0.00 0.00 0.00 0.00 0.00 0.00 0.00 0.00 0.00 0.00 0.00 0.00 0.00 0.00 0.00 0.00 0.00 0.00 0.00 0.00 0.00 0.00 0.00 0.00 0.00 0.00 0.00 0.00 0.00 0.00 0.00 0.00 0.00 0.00 0.05 0.07 0.33 0.14 0.02 0.04 0.07 0.04 0.00 0.00 0.00 0.00 0.00 0.00 0.00 0.00 0.01 0.00 0.00 0.00
0.00 0.00 0.00 0.00 0.00 0.00 0.00 0.00 0.00 0.00 0.00 0.00 0.00 0.00 0.00 0.00 0.00 0.00 0.00 0.00 0.00 0.00 0.00 0.00 0.00 0.00 0.00 0.00 0.00 0.00 0.01 0.00 0.00 0.00 0.04 0.19 0.36 0.03 0.04 0.05 0.07 0.06 0.01 0.00 0.00 0.00 0.00 0.00 0.00 0.00 0.00 0.00 0.00 0.00
0.00 0.00 0.00 0.00 0.00 0.00 0.00 0.00 0.00 0.00 0.00 0.00 0.00 0.00 0.00 0.00 0.00 0.00 0.00 0.00 0.00 0.00 0.00 0.00 0.00 0.00 0.00 0.00 0.00 0.00 0.00 0.00 0.00 0.00 0.08 0.30 0.10 0.18 0.18 0.28 0.42 0.27 0.08 0.00 0.00 0.00 0.00 0.00 0.00 0.00 0.00 0.00 0.00 0.00
0.00 0.00 0.00 0.00 0.00 0.00 0.00 0.00 0.00 0.00 0.00 0.00 0.00 0.00 0.00 0.00 0.00 0.00 0.00 0.00 0.00 0.00 0.00 0.00 0.00 0.00 0.00 0.00 0.01 0.00 0.00 0.00 0.04 0.06 0.30 0.15 0.01 0.02 0.02 0.03 0.16 0.16 0.03 0.01 0.02 0.01 0.01 0.00 0.00 0.00 0.00 0.00 0.00 0.00
0.00 0.00 0.00 0.00 0.00 0.00 0.00 0.00 0.00 0.00 0.00 0.00 0.00 0.00 0.00 0.00 0.00 0.00 0.00 0.00 0.00 0.00 0.00 0.00 0.00 0.00 0.00 0.01 0.01 0.00 0.01 0.06 0.24 0.38 0.30 0.05 0.00 0.00 0.00 0.00 0.00 0.05 0.05 0.03 0.02 0.01 0.00 0.00 0.00 0.00 0.00 0.00 0.00 0.00
0.00 0.00 0.00 0.00 0.00 0.00 0.00 0.00 0.00 0.00 0.00 0.00 0.00 0.00 0.00 0.00 0.00 0.00 0.00 0.00 0.00 0.00 0.00 0.00 0.00 0.00 0.02 0.02 0.02 0.05 0.10 0.12 0.21 0.32 0.16 0.03 0.00 0.00 0.00 0.00 0.00 0.00 0.00 0.00 0.01 0.00 0.00 0.00 0.01 0.02 0.01 0.00 0.00 0.00
0.00 0.00 0.00 0.00 0.00 0.00 0.00 0.00 0.00 0.00 0.00 0.00 0.00 0.00 0.00 0.00 0.00 0.00 0.00 0.00 0.00 0.00 0.00 0.00 0.00 0.00 0.01 0.05 0.07 0.08 0.10 0.19 0.13 0.12 0.06 0.00 0.00 0.00 0.00 0.00 0.00 0.00 0.00 0.00 0.00 0.00 0.00 0.00 0.00 0.01 0.01 0.00 0.00 0.00
0.00 0.00 0.00 0.00 0.00 0.00 0.00 0.00 0.00 0.00 0.00 0.00 0.00 0.00 0.00 0.00 0.00 0.00 0.00 0.00 0.00 0.00 0.00 0.00 0.00 0.00 0.01 0.09 0.14 0.20 0.12 0.02 0.01 0.01 0.00 0.00 0.00 0.00 0.00 0.00 0.00 0.00 0.00 0.00 0.00 0.00 0.00 0.00 0.00 0.01 0.00 0.01 0.00 0.00
0.00 0.00 0.00 0.00 0.00 0.00 0.00 0.00 0.00 0.00 0.00 0.00 0.00 0.00 0.00 0.00 0.00 0.00 0.00 0.00 0.00 0.00 0.00 0.00 0.00 0.00 0.00 0.03 0.07 0.05 0.01 0.00 0.00 0.00 0.00 0.01 0.00 0.00 0.00 0.00 0.00 0.00 0.00 0.00 0.00 0.00 0.00 0.00 0.00 0.01 0.02 0.05 0.02 0.00
0.00 0.00 0.00 0.00 0.00 0.00 0.00 0.00 0.00 0.00 0.00 0.00 0.00 0.00 0.00 0.00 0.00 0.00 0.00 0.00 0.00 0.00 0.00 0.00 0.00 0.00 0.00 0.00 0.01 0.02 0.00 0.00 0.00 0.00 0.00 0.00 0.00 0.00 0.00 0.00 0.00 0.00 0.00 0.00 0.01 0.01 0.01 0.00 0.00 0.00 0.00 0.00 0.00 0.00
0.00 0.00 0.00 0.00 0.00 0.00 0.00 0.00 0.00 0.00 0.00 0.00 0.00 0.00 0.00 0.00 0.00 0.00 0.00 0.00 0.00 0.00 0.00 0.00 0.00 0.00 0.00 0.00 0.00 0.00 0.00 0.00 0.00 0.00 0.00 0.00 0.00 0.00 0.01 0.00 0.00 0.01 0.00 0.00 0.00 0.00 0.00 0.00 0.00 0.00 0.00 0.00 0.00 0.00
0.00 0.00 0.00 0.00 0.00 0.00 0.00 0.00 0.00 0.00 0.00 0.00 0.00 0.00 0.00 0.00 0.00 0.00 0.00 0.00 0.00 0.00 0.00 0.00 0.00 0.00 0.00 0.00 0.00 0.00 0.00 0.00 0.00 0.01 0.00 0.00 0.00 0.01 0.00 0.00 0.00 0.00 0.00 0.00 0.00 0.00 0.00 0.00 0.00 0.00 0.00 0.01 0.01 0.02
0.00 0.00 0.00 0.00 0.00 0.00 0.00 0.00 0.00 0.00 0.00 0.00 0.00 0.00 0.00 0.00 0.00 0.00 0.00 0.01 0.05 0.01 0.00 0.00 0.00 0.01 0.01 0.00 0.00 0.00 0.00 0.00 0.00 0.01 0.00 0.00 0.00 0.00 0.00 0.00 0.00 0.00 0.00 0.00 0.00 0.00 0.00 0.00 0.00 0.00 0.00 0.00 0.00 0.00
0.00 0.00 0.00 0.00 0.01 0.00 0.00 0.00 0.00 0.00 0.00 0.00 0.00 0.00 0.00 0.00 0.00 0.00 0.01 0.20 0.14 0.02 0.02 0.03 0.02 0.00 0.00 0.00 0.00 0.00 0.00 0.00 0.00 0.00 0.00 0.00 0.02 0.00 0.00 0.00 0.00 0.00 0.00 0.00 0.00 0.00 0.00 0.00 0.00 0.00 0.00 0.00 0.00 0.00
0.00 0.00 0.00 0.00 0.00 0.00 0.00 0.00 0.00 0.00 0.00 0.00 0.00 0.00 0.00 0.00 0.00 0.01 0.08 0.25 0.16 0.04 0.03 0.01 0.00 0.00 0.00 0.00 0.00 0.00 0.00 0.00 0.00 0.00 0.00 0.00 0.00 0.00 0.00 0.00 0.00 0.00 0.00 0.00 0.00 0.00 0.00 0.00 0.00 0.00 0.00 0.00 0.00 0.00
0.00 0.00 0.00 0.00 0.00 0.00 0.00 0.00 0.00 0.00 0.00 0.00 0.00 0.00 0.00 0.00 0.01 0.02 0.04 0.20 0.23 0.11 0.04 0.00 0.00 0.00 0.00 0.00 0.00 0.00 0.00 0.00 0.00 0.00 0.00 0.00 0.00 0.01 0.00 0.00 0.00 0.00 0.00 0.00 0.00 0.00 0.00 0.00 0.00 0.00 0.00 0.00 0.00 0.00
0.00 0.00 0.00 0.00 0.00 0.00 0.00 0.00 0.00 0.00 0.00 0.00 0.00 0.00 0.00 0.01 0.08 0.02 0.08 0.07 0.01 0.00 0.00 0.00 0.00 0.00 0.00 0.00 0.00 0.00 0.00 0.00 0.00 0.00 0.00 0.00 0.00 0.00 0.00 0.02 0.02 0.00 0.00 0.00 0.00 0.00 0.00 0.00 0.00 0.00 0.00 0.00 0.00 0.00
0.00 0.00 0.00 0.00 0.00 0.00 0.00 0.00 0.00 0.00 0.00 0.00 0.00 0.00 0.00 0.01 0.01 0.00 0.00 0.00 0.00 0.00 0.00 0.00 0.00 0.00 0.00 0.00 0.00 0.00 0.00 0.00 0.00 0.00 0.00 0.00 0.00 0.00 0.00 0.00 0.00 0.00 0.00 0.00 0.00 0.00 0.00 0.00 0.00 0.00 0.00 0.00 0.00 0.00
0.00 0.00 0.00 0.00 0.00 0.00 0.00 0.00 0.00 0.00 0.00 0.00 0.00 0.00 0.00 0.00 0.00 0.00 0.00 0.00 0.00 0.00 0.00 0.00 0.00 0.00 0.00 0.00 0.00 0.00 0.00 0.00 0.01 0.01 0.00 0.00 0.00 0.00 0.00 0.00 0.00 0.00 0.00 0.00 0.00 0.00 0.00 0.00 0.00 0.00 0.00 0.00 0.00 0.00
0.00 0.00 0.00 0.00 0.00 0.00 0.00 0.00 0.00 0.00 0.00 0.00 0.00 0.00 0.00 0.00 0.00 0.00 0.00 0.00 0.00 0.00 0.00 0.00 0.00 0.00 0.00 0.00 0.01 0.00 0.00 0.00 0.00 0.00 0.00 0.00 0.00 0.00 0.00 0.00 0.00 0.00 0.00 0.00 0.00 0.00 0.00 0.00 0.00 0.00 0.00 0.00 0.00 0.00
0.00 0.00 0.00 0.00 0.00 0.00 0.00 0.00 0.00 0.01 0.01 0.00 0.00 0.00 0.00 0.00 0.00 0.00 0.00 0.00 0.00 0.00 0.00 0.00 0.00 0.00 0.00 0.00 0.00 0.00 0.00 0.00 0.00 0.00 0.00 0.00 0.00 0.00 0.00 0.00 0.00 0.00 0.00 0.00 0.00 0.00 0.00 0.00 0.00 0.00 0.00 0.00 0.00 0.00
0.00 0.00 0.00 0.00 0.00 0.00 0.01 0.03 0.07 0.11 0.07 0.02 0.00 0.00 0.00 0.00 0.00 0.00 0.00 0.00 0.00 0.00 0.00 0.00 0.00 0.00 0.00 0.00 0.00 0.00 0.00 0.00 0.00 0.00 0.00 0.00 0.00 0.00 0.00 0.00 0.00 0.00 0.00 0.00 0.00 0.00 0.00 0.00 0.00 0.00 0.00 0.00 0.00 0.00
0.00 0.00 0.00 0.00 0.00 0.00 0.01 0.02 0.09 0.07 0.03 0.02 0.00 0.00 0.00 0.00 0.00 0.00 0.00 0.00 0.00 0.00 0.00 0.00 0.00 0.00 0.00 0.00 0.00 0.00 0.00 0.00 0.00 0.00 0.00 0.00 0.00 0.00 0.00 0.00 0.00 0.00 0.00 0.00 0.00 0.00 0.00 0.00 0.00 0.00 0.00 0.00 0.00 0.00
MSLP
1025.18 1024.87 1024.58 1024.28 1023.99 1023.75 1023.54 1023.33 1023.13 1022.80 1022.45 1022.12 1021.83 1021.49 1021.15 1020.80 1020.41 1020.32 1020.31 1020.01 1020.19 1019.96 1018.01 1017.06 1016.63 1016.26 1016.12 1016.29 1016.42 1015.67 1015.14 1014.70 1014.05 1013.93 1013.94 1013.48 1012.80 1011.99 1011.64 1011.36 1011.16 1011.21 1011.17 1010.72 1009.99 1009.08 1008.10 1006.50 1005.23 1006.03 1005.31 1004.43 1004.39 1004.30
1025.00 1024.71 1024.40 1024.12 1023.89 1023.67 1023.49 1023.32 1023.10 1022.82 1022.49 1022.18 1021.90 1021.65 1021.38 1021.04 1020.62 1020.31 1020.56 1020.21 1020.23 1020.26 1018.09 1016.97 1016.02 1015.41 1015.29 1015.57 1016.03 1016.07 1015.82 1015.37 1014.69 1014.65 1014.46 1014.07 1013.49 1012.72 1012.46 1012.10 1011.71 1011.88 1011.64 1011.55 1011.21 1009.61 1008.02 1007.64 1007.19 1006.40 1006.08 1005.51 1004.70 1004.68
1024.77 1024.51 1024.21 1023.95 1023.72 1023.56 1023.41 1023.24 1023.04 1022.78 1022.50 1022.19 1021.90 1021.63 1021.34 1021.03 1020.73 1020.61 1020.78 1020.60 1020.40 1019.98 1018.05 1016.91 1015.40 1014.82 1014.72 1014.93 1015.08 1015.76 1015.32 1014.71 1014.56 1014.15 1014.52 1014.41 1014.00 1013.23 1012.97 1012.49 1011.96 1011.66 1011.58 1011.35 1010.91 1009.32 1008.47 1007.81 1007.26 1006.65 1006.41 1005.77 1004.97 1004.33
1024.46 1024.23 1023.99 1023.73 1023.62 1023.51 1023.36 1023.14 1022.88 1022.63 1022.38 1022.13 1021.82 1021.50 1021.20 1020.89 1020.59 1020.42 1020.80 1020.60 1020.66 1020.24 1019.43 1016.46 1015.09 1014.59 1014.01 1014.11 1014.38 1014.32 1014.32 1014.49 1014.67 1014.46 1014.47 1014.30 1013.99 1012.83 1012.53 1012.08 1011.84 1011.17 1011.18 1010.95 1010.48 1009.35 1008.16 1007.55 1006.90 1006.41 1006.30 1005.72 1005.28 1004.71
1024.19 1023.97 1023.72 1023.59 1023.49 1023.38 1023.20 1022.98 1022.73 1022.46 1022.17 1021.88 1021.63 1021.35 1021.05 1020.70 1020.35 1020.18 1020.31 1020.18 1020.00 1020.26 1019.63 1017.28 1015.55 1014.20 1013.94 1013.93 1013.81 1013.97 1014.23 1014.77 1014.82 1014.55 1014.30 1013.76 1012.69 1012.38 1011.75 1011.60 1011.01 1010.61 1010.03 1010.21 1010.13 1009.56 1009.12 1007.26 1006.30 1006.13 1005.69 1005.46 1004.99 1004.52
1023.88 1023.67 1023.49 1023.41 1023.33 1023.22 1023.01 1022.78 1022.53 1022.23 1021.95 1021.63 1021.33 1021.06 1020.77 1020.54 1020.25 1020.32 1020.10 1019.91 1019.65 1019.75 1019.72 1018.40 1016.26 1014.66 1013.69 1013.08 1012.89 1012.97 1013.41 1014.25 1014.21 1013.91 1013.00 1012.16 1011.27 1011.31 1011.26 1010.81 1009.54 1009.08 1009.05 1008.89 1009.21 1008.17 1007.86 1006.90 1006.39 1005.78 1005.48 1005.05 1004.93 1004.64
1023.52 1023.39 1023.31 1023.23 1023.16 1023.03 1022.79 1022.58 1022.34 1021.98 1021.67 1021.24 1020.88 1020.60 1020.36 1020.26 1020.57 1020.40 1020.07 1019.76 1019.66 1019.84 1019.71 1018.87 1017.14 1014.91 1013.74 1012.97 1012.34 1012.36 1012.75 1013.07 1013.31 1013.15 1012.48 1011.64 1011.16 1011.15 1010.90 1009.81 1008.24 1008.08 1007.83 1007.80 1007.59 1007.77 1007.57 1006.29 1005.90 1005.48 1005.22 1004.74 1004.60 1004.44
1023.22 1023.14 1023.09 1023.03 1022.97 1022.84 1022.61 1022.38 1022.05 1021.68 1021.22 1020.68 1020.26 1019.91 1019.77 1019.75 1019.94 1019.73 1019.03 1018.70 1019.51 1019.84 1019.69 1019.34 1017.77 1016.03 1014.30 1014.02 1013.62 1012.95 1012.91 1012.93 1012.61 1012.19 1011.75 1011.34 1011.01 1010.71 1010.07 1008.48 1008.00 1007.61 1007.14 1006.73 1006.76 1006.81 1006.30 1005.81 1005.61 1005.33 1005.02 1004.81 1004.74 1004.55
1022.96 1022.96 1022.92 1022.88 1022.76 1022.60 1022.43 1022.17 1021.76 1021.31 1020.69 1020.11 1019.69 1019.32 1019.72 1019.82 1019.77 1019.41 1018.85 1018.85 1018.99 1019.51 1019.26 1019.18 1018.65 1016.95 1014.94 1014.57 1014.06 1013.47 1013.29 1013.06 1012.31 1011.92 1011.23 1010.86 1010.54 1010.25 1009.34 1008.83 1008.12 1007.48 1007.29 1006.87 1006.45 1006.09 1005.76 1005.62 1005.27 1004.97 1004.81 1004.62 1004.75 1004.40
1022.72 1022.77 1022.78 1022.72 1022.64 1022.50 1022.27 1021.97 1021.53 1020.93 1020.27 1019.59 1019.56 1019.72 1019.93 1019.86 1019.22 1019.20 1019.11 1019.09 1018.95 1018.99 1019.06 1018.97 1018.37 1017.52 1016.36 1015.47 1014.66 1014.35 1013.55 1013.20 1012.48 1011.38 1010.78 1010.56 1010.16 1009.63 1009.16 1008.61 1008.09 1007.56 1007.15 1006.80 1006.56 1005.86 1005.41 1005.12 1004.87 1004.45 1004.17 1003.93 1003.94 1003.86
1022.49 1022.53 1022.55 1022.53 1022.53 1022.36 1022.13 1021.84 1021.38 1020.75 1020.09 1020.34 1020.66 1020.63 1020.28 1019.65 1019.46 1019.27 1019.03 1018.74 1018.69 1018.72 1018.42 1018.03 1017.75 1017.32 1015.81 1015.82 1015.34 1014.39 1013.98 1013.24 1012.64 1011.46 1010.79 1010.43 1009.96 1009.53 1009.04 1008.25 1007.52 1007.00 1006.68 1006.38 1006.10 1005.66 1005.33 1004.99 1004.52 1004.20 1003.77 1003.37 1003.17 1003.12
1022.22 1022.27 1022.26 1022.25 1022.26 1022.15 1022.00 1021.82 1021.50 1021.34 1021.40 1021.45 1021.44 1021.04 1020.70 1020.09 1019.77 1019.48 1018.77 1018.33 1018.05 1017.48 1017.32 1017.20 1016.69 1016.61 1015.86 1015.45 1015.19 1014.47 1013.93 1013.12 1012.28 1011.46 1010.96 1010.44 1010.23 1010.01 1009.21 1008.23 1007.54 1006.82 1006.41 1005.91 1005.35 1005.01 1004.68 1004.37 1004.07 1003.94 1003.42 1002.77 1002.58 1002.67
1022.10 1022.11 1022.11 1022.06 1021.96 1021.86 1021.70 1021.56 1021.46 1021.28 1021.12 1021.20 1021.16 1020.87 1020.56 1020.17 1019.73 1019.06 1018.19 1017.48 1017.15 1016.83 1016.63 1016.62 1016.63 1016.34 1015.61 1015.38 1014.98 1014.60 1014.05 1013.00 1011.91 1011.47 1011.27 1011.18 1010.68 1010.18 1009.60 1008.51 1007.42 1006.49 1006.08 1005.53 1004.72 1004.40 1004.16 1003.94 1003.59 1003.33 1002.97 1002.43 1002.24 1002.68
1021.98 1021.95 1021.84 1021.78 1021.65 1021.41 1021.26 1021.30 1021.25 1021.21 1021.31 1021.19 1020.99 1020.75 1020.37 1019.64 1018.85 1017.79 1017.17 1016.76 1016.23 1016.23 1016.29 1016.49 1016.54 1016.49 1015.92 1015.46 1014.71 1014.40 1013.51 1012.99 1012.31 1012.06 1012.13 1011.27 1010.88 1010.39 1009.67 1008.88 1008.12 1007.03 1006.14 1005.34 1005.02 1004.35 1004.03 1003.77 1003.26 1002.78 1002.59 1002.34 1002.46 1002.70
1021.84 1021.85 1021.64 1021.42 1021.34 1021.21 1020.99 1020.98 1021.08 1021.41 1021.39 1021.24 1021.02 1020.57 1019.69 1018.66 1017.98 1017.11 1016.42 1016.14 1015.73 1015.80 1016.13 1016.42 1016.48 1016.56 1016.01 1015.49 1015.00 1014.51 1013.71 1013.34 1013.58 1013.46 1012.72 1011.60 1011.06 1010.59 1009.62 1008.57 1007.84 1007.08 1006.35 1005.45 1004.92 1004.79 1004.28 1003.93 1003.56 1003.02 1002.58 1002.30 1002.57 1002.92
1021.67 1021.69 1021.55 1021.32 1021.18 1021.01 1020.79 1020.88 1021.20 1021.47 1021.29 1021.03 1020.71 1020.05 1018.98 1018.79 1017.94 1017.06 1016.40 1016.05 1015.71 1015.86 1016.14 1016.36 1016.60 1016.53 1016.23 1015.93 1015.37 1014.72 1014.45 1014.15 1014.13 1013.41 1012.44 1011.90 1011.03 1010.32 1009.56 1008.66 1007.98 1007.17 1006.44 1005.69 1005.31 1004.83 1004.56 1004.29 1003.93 1003.50 1002.91 1002.52 1002.57 1002.84
1021.64 1021.65 1021.30 1021.19 1021.06 1020.72 1020.46 1020.85 1021.20 1021.17 1020.87 1020.45 1019.80 1019.09 1018.97 1018.53 1018.06 1017.14 1016.43 1015.86 1015.57 1015.89 1016.25 1016.44 1016.50 1016.29 1016.12 1015.86 1015.43 1015.10 1014.95 1014.33 1013.74 1013.09 1012.34 1011.78 1011.07 1010.01 1009.16 1008.56 1007.95 1007.27 1006.67 1006.04 1005.47 1005.03 1004.77 1004.34 1003.90 1003.66 1003.32 1002.98 1002.85 1003.00
1021.72 1021.42 1021.26 1021.18 1020.97 1020.96 1020.79 1020.91 1021.00 1020.56 1020.07 1019.58 1019.51 1018.64 1018.37 1017.73 1017.32 1016.74 1016.00 1015.55 1015.70 1015.70 1015.96 1015.89 1015.77 1015.96 1016.02 1016.01 1015.69 1015.21 1014.40 1013.52 1013.18 1012.65 1011.94 1011.10 1010.40 1009.39 1008.96 1008.60 1007.99 1007.41 1006.89 1006.26 1005.75 1005.30 1004.94 1004.50 1004.22 1004.35 1004.08 1003.88 1003.54 1003.57
1021.53 1021.33 1021.12 1021.17 1021.35 1021.39 1021.24 1020.82 1020.70 1020.26 1019.41 1019.11 1018.60 1018.12 1017.67 1017.06 1016.32 1015.69 1015.43 1014.98 1015.11 1015.13 1015.35 1015.50 1015.56 1015.55 1015.40 1015.25 1014.98 1014.18 1013.52 1013.08 1012.51 1011.99 1011.43 1010.50 1009.91 1009.25 1008.70 1008.39 1008.02 1007.47 1007.07 1006.62 1006.31 1006.05 1005.57 1005.11 1005.01 1004.89 1004.67 1004.19 1004.36 1004.22
1020.98 1020.79 1020.69 1020.88 1021.20 1021.50 1021.22 1020.55 1019.99 1019.69 1019.00 1018.45 1018.17 1017.63 1017.22 1016.58 1015.66 1015.16 1014.88 1014.74 1014.87 1015.16 1015.47 1015.29 1014.95 1014.22 1013.95 1013.46 1013.32 1013.10 1012.60 1012.31 1012.16 1011.76 1010.93 1010.06 1009.34 1008.84 1008.50 1008.24 1007.83 1007.58 1007.49 1006.76 1006.45 1006.23 1005.90 1005.62 1005.43 1005.30 1005.33 1005.10 1004.85 1004.81
1020.87 1020.58 1020.50 1020.86 1021.21 1021.39 1021.19 1020.38 1019.82 1019.02 1018.47 1018.25 1017.36 1017.23 1016.64 1015.98 1015.53 1015.04 1014.62 1014.29 1014.69 1014.69 1014.74 1014.21 1013.80 1013.12 1012.83 1012.56 1012.45 1012.33 1012.09 1011.84 1011.63 1011.50 1010.88 1010.04 1009.16 1009.18 1008.69 1008.27 1007.89 1007.58 1007.48 1007.26 1006.99 1006.50 1006.17 1006.08 1005.84 1005.67 1005.64 1005.60 1005.31 1005.18
1020.91 1020.50 1020.76 1020.86 1021.01 1020.86 1020.69 1019.86 1019.64 1018.76 1018.64 1017.54 1017.26 1016.81 1016.52 1015.82 1015.03 1014.34 1014.10 1014.23 1014.14 1013.88 1013.90 1013.77 1013.34 1013.02 1012.72 1012.40 1012.14 1011.90 1011.63 1011.28 1010.84 1010.68 1010.28 1010.16 1009.72 1009.20 1008.85 1008.56 1008.14 1007.92 1007.57 1007.34 1007.15 1007.07 1006.68 1006.27 1006.09 1005.98 1005.93 1005.91 1005.66 1005.47
1020.78 1020.68 1020.70 1020.70 1020.67 1020.37 1019.80 1019.25 1019.13 1018.20 1017.86 1016.96 1016.61 1016.39 1015.82 1015.17 1014.16 1013.64 1013.75 1013.75 1013.61 1013.41 1013.31 1013.17 1012.84 1012.77 1012.69 1012.22 1011.94 1011.55 1011.34 1011.19 1010.88 1010.44 1010.08 1009.83 1009.37 1009.10 1008.82 1008.45 1008.21 1008.10 1007.80 1007.25 1007.09 1006.94 1006.72 1006.37 1006.16 1006.08 1006.10 1006.08 1006.04 1006.05
1020.67 1020.72 1020.60 1020.33 1020.03 1019.55 1019.02 1018.68 1018.12 1017.49 1016.53 1016.19 1016.12 1015.80 1015.10 1014.38 1013.86 1013.63 1013.62 1013.37 1013.34 1013.08 1013.04 1012.93 1012.97 1012.70 1012.51 1012.20 1012.05 1011.66 1011.27 1010.94 1010.55 1010.05 1009.81 1009.51 1009.27 1008.92 1008.72 1008.47 1008.16 1007.87 1007.75 1007.58 1007.23 1007.03 1006.79 1006.75 1006.56 1006.38 1006.37 1006.41 1006.50 1006.50
1021.14 1020.64 1020.60 1020.00 1019.52 1019.14 1018.27 1017.71 1017.07 1016.45 1015.79 1015.53 1015.52 1015.12 1014.51 1014.07 1013.87 1013.51 1013.66 1013.49 1013.15 1013.22 1013.10 1013.04 1012.95 1012.82 1012.75 1012.24 1011.96 1011.40 1010.97 1010.80 1010.57 1010.32 1009.78 1009.42 1009.27 1008.84 1008.63 1008.45 1008.24 1008.12 1007.86 1007.67 1007.45 1007.39 1007.44 1007.24 1007.07 1006.95 1006.87 1007.07 1007.24 1007.21
1020.55 1019.90 1020.01 1019.39 1018.88 1018.69 1017.83 1017.05 1016.13 1015.75 1015.55 1015.42 1015.25 1014.78 1014.42 1014.14 1013.71 1013.43 1013.72 1013.40 1013.24 1013.07 1012.91 1012.85 1012.99 1012.85 1012.48 1012.25 1012.02 1011.46 1010.96 1010.63 1010.52 1010.29 1009.80 1009.46 1009.32 1009.23 1009.18 1009.02 1008.78 1008.50 1008.32 1008.04 1007.78 1007.77 1007.82 1007.82 1007.78 1007.81 1007.96 1008.05 1008.18 1008.02
1019.98 1019.37 1019.06 1018.62 1018.33 1017.79 1017.11 1016.19 1015.72 1015.50 1015.41 1015.42 1015.28 1014.96 1014.48 1013.86 1013.56 1013.50 1013.43 1013.29 1013.23 1012.77 1012.71 1012.74 1012.79 1012.71 1012.40 1011.98 1011.57 1010.99 1010.55 1010.27 1010.16 1009.86 1009.57 1009.29 1009.16 1009.17 1009.08 1008.98 1008.92 1008.73 1008.40 1008.24 1008.06 1008.01 1008.20 1008.35 1008.44 1008.56 1008.72 1008.90 1008.97 1008.93
1019.39 1018.90 1018.76 1018.37 1018.01 1017.33 1016.84 1016.09 1015.57 1014.94 1014.70 1014.87 1015.11 1014.86 1014.13 1013.40 1013.18 1012.99 1012.90 1012.77 1012.65 1012.48 1012.45 1012.38 1012.29 1012.19 1011.81 1011.54 1011.45 1011.01 1010.22 1009.98 1009.63 1009.56 1009.48 1009.39 1009.45 1009.44 1009.29 1009.13 1008.94 1008.80 1008.76 1008.73 1008.59 1008.66 1008.85 1009.11 1009.38 1009.55 1009.60 1009.73 1009.88 1009.81
1019.00 1018.42 1018.30 1017.92 1017.51 1016.80 1015.91 1015.27 1014.67 1014.16 1013.91 1014.14 1014.36 1014.27 1013.89 1013.44 1012.95 1012.72 1012.52 1012.42 1012.44 1012.55 1012.49 1012.20 1011.91 1011.80 1011.58 1011.20 1011.23 1011.08 1010.74 1010.25 1010.13 1010.20 1010.14 1010.19 1010.16 1009.94 1009.90 1009.67 1009.56 1009.40 1009.43 1009.48 1009.57 1009.57 1009.69 1009.88 1010.09 1010.22 1010.39 1010.52 1010.64 1010.59
1018.17 1017.66 1017.74 1017.08 1016.53 1015.54 1014.42 1013.84 1013.69 1013.38 1013.46 1013.47 1013.55 1013.58 1013.46 1013.18 1012.65 1012.27 1012.27 1012.20 1012.17 1011.91 1011.78 1011.83 1011.78 1011.89 1011.70 1011.60 1011.33 1011.37 1011.35 1011.02 1010.83 1010.76 1010.81 1010.94 1011.03 1010.78 1010.49 1010.36 1010.29 1010.25 1010.22 1010.24 1010.36 1010.58 1010.62 1010.67 1010.75 1010.81 1010.97 1011.13 1011.18 1011.17
1017.14 1017.19 1016.85 1016.06 1015.16 1013.86 1013.24 1013.06 1013.11 1013.21 1013.35 1013.31 1013.36 1013.49 1013.05 1012.85 1012.16 1011.53 1011.14 1010.91 1010.93 1011.16 1011.34 1011.43 1011.47 1011.43 1011.43 1011.45 1011.59 1011.71 1011.74 1011.59 1011.44 1011.37 1011.31 1011.28 1011.22 1011.17 1011.14 1011.13 1011.04 1011.04 1011.14 1011.20 1011.30 1011.44 1011.55 1011.63 1011.69 1011.73 1011.76 1011.80 1011.82 1011.70
1016.22 1015.91 1015.47 1014.91 1014.03 1013.18 1012.92 1013.04 1012.93 1012.59 1012.38 1012.31 1012.22 1012.21 1012.17 1012.24 1011.92 1010.92 1010.49 1010.62 1010.82 1010.89 1010.94 1011.03 1011.13 1011.28 1011.26 1011.39 1011.62 1011.80 1012.00 1012.09 1012.02 1011.90 1011.84 1011.88 1011.90 1011.86 1011.77 1011.74 1011.77 1011.87 1011.97 1012.09 1012.16 1012.25 1012.29 1012.34 1012.39 1012.41 1012.43 1012.43 1012.37 1012.26
1014.97 1014.55 1014.24 1014.02 1013.29 1012.83 1012.69 1012.72 1012.53 1012.26 1011.84 1011.64 1011.40 1011.33 1011.31 1011.28 1010.89 1010.47 1010.27 1010.30 1010.37 1010.50 1010.66 1010.82 1011.10 1011.40 1011.55 1011.76 1012.08 1012.32 1012.33 1012.37 1012.34 1012.28 1012.23 1012.23 1012.27 1012.35 1012.40 1012.43 1012.46 1012.52 1012.60 1012.76 1012.90 1012.98 1013.03 1013.04 1013.06 1013.08 1013.07 1013.00 1012.89 1012.71
Thickness
5625 5627 5629 5631 5633 5633 5633 5633 5632 5632 5633 5633 5633 5632 5633 5633 5634 5633 5630 5629 5624 5618 5629 5637 5636 5630 5625 5616 5615 5616 5619 5620 5617 5611 5610 5610 5612 5617 5618 5622 5622 5620 5617 5622 5633 5634 5636 5680 5696 5683 5697 5711 5720 5728
5622 5624 5626 5627 5628 5628 5628 5627 5627 5627 5627 5627 5626 5625 5624 5624 5624 5624 5619 5619 5615 5607 5622 5626 5628 5628 5624 5616 5603 5597 5601 5601 5603 5599 5599 5594 5600 5604 5600 5608 5611 5606 5610 5613 5611 5624 5650 5656 5665 5679 5688 5696 5711 5716
5619 5620 5621 5622 5623 5623 5622 5622 5621 5620 5620 5620 5619 5618 5617 5616 5615 5612 5608 5605 5603 5599 5609 5613 5624 5622 5616 5610 5604 5589 5590 5596 5595 5594 5587 5583 5586 5588 5587 5588 5599 5603 5604 5607 5610 5630 5635 5648 5655 5669 5678 5689 5700 5711
5615 5616 5617 5618 5617 5616 5616 5615 5615 5615 5614 5613 5611 5610 5610 5609 5607 5604 5599 5597 5590 5588 5593 5605 5615 5614 5614 5607 5600 5598 5594 5588 5583 5581 5580 5575 5576 5583 5580 5586 5587 5596 5599 5601 5606 5619 5633 5641 5652 5661 5668 5680 5689 5699
5611 5612 5612 5612 5611 5610 5609 5609 5608 5608 5607 5606 5604 5603 5602 5601 5601 5598 5594 5589 5584 5577 5575 5586 5599 5608 5604 5600 5597 5591 5584 5575 5577 5577 5574 5573 5577 5579 5582 5584 5588 5593 5597 5595 5599 5608 5611 5634 5651 5658 5666 5671 5682 5691
5607 5607 5607 5606 5605 5604 5603 5602 5602 5601 5600 5599 5598 5597 5596 5594 5592 5590 5586 5581 5576 5571 5566 5574 5584 5594 5601 5601 5599 5595 5587 5574 5574 5575 5583 5587 5590 5588 5583 5579 5601 5602 5604 5607 5606 5611 5618 5634 5643 5654 5662 5670 5676 5684
5602 5601 5600 5599 5598 5597 5597 5596 5595 5596 5595 5595 5595 5593 5591 5587 5582 5577 5575 5574 5569 5564 5562 5560 5568 5588 5593 5595 5597 5596 5587 5583 5575 5571 5576 5583 5584 5582 5579 5589 5610 5607 5613 5615 5619 5617 5618 5633 5639 5651 5657 5666 5672 5679
5596 5594 5593 5592 5591 5590 5590 5589 5589 5590 5591 5592 5592 5590 5587 5583 5577 5574 5575 5573 5562 5556 5554 5555 5560 5570 5584 5580 5580 5580 5581 5576 5577 5581 5581 5581 5583 5580 5582 5601 5608 5612 5616 5621 5624 5622 5627 5636 5640 5646 5653 5658 5662 5668
5590 5588 5587 5585 5584 5584 5583 5583 5585 5585 5587 5588 5588 5586 5580 5574 5570 5568 5567 5565 5560 5555 5557 5545 5547 5556 5571 5572 5568 5573 5571 5574 5578 5580 5584 5588 5585 5584 5594 5594 5602 5613 5613 5616 5620 5624 5629 5633 5639 5646 5650 5654 5656 5662
5585 5583 5581 5580 5579 5578 5577 5578 5579 5581 5582 5584 5580 5576 5573 5565 5564 5561 5557 5558 5555 5551 5542 5542 5539 5545 5557 5558 5565 5565 5567 5570 5575 5583 5587 5585 5589 5591 5595 5600 5602 5607 5610 5613 5615 5622 5632 5635 5639 5645 5652 5657 5658 5660
5579 5577 5575 5574 5572 5571 5571 5571 5572 5574 5576 5569 5559 5560 5559 5559 5556 5554 5557 5560 5554 5554 5547 5543 5541 5544 5556 5557 5555 5566 5563 5566 5570 5580 5586 5587 5585 5591 5597 5603 5608 5609 5611 5614 5617 5621 5625 5629 5635 5642 5650 5656 5661 5664
5573 5571 5569 5567 5566 5565 5563 5562 5562 5561 5556 5552 5548 5548 5547 5549 5545 5552 5550 5554 5555 5561 5554 5550 5553 5542 5549 5551 5556 5560 5566 5569 5571 5578 5583 5584 5583 5588 5593 5602 5606 5611 5613 5618 5623 5625 5629 5633 5637 5640 5648 5657 5662 5665
5564 5563 5561 5560 5559 5557 5556 5555 5553 5551 5550 5546 5543 5548 5546 5545 5531 5547 5561 5560 5555 5555 5556 5554 5553 5548 5547 5547 5550 5556 5557 5564 5575 5580 5580 5578 5583 5585 5587 5596 5602 5607 5613 5618 5623 5626 5629 5632 5639 5643 5649 5657 5661 5660
5554 5553 5553 5552 5551 5551 5550 5547 5545 5543 5540 5545 5546 5548 5539 5542 5543 5550 5557 5554 5558 5554 5553 5547 5545 5543 5540 5551 5556 5555 5561 5565 5577 5575 5567 5577 5581 5582 5587 5593 5598 5606 5611 5616 5617 5623 5624 5629 5637 5644 5648 5653 5655 5655
5545 5544 5545 5545 5544 5543 5543 5541 5537 5533 5531 5535 5537 5533 5537 5545 5545 5554 5556 5555 5558 5550 5549 5544 5539 5535 5547 5549 5550 5553 5562 5567 5557 5557 5564 5574 5579 5581 5589 5596 5602 5607 5610 5614 5617 5616 5621 5626 5630 5635 5643 5650 5651 5650
5536 5535 5536 5535 5535 5534 5535 5534 5529 5524 5523 5529 5526 5531 5538 5536 5541 5548 5552 5551 5547 5541 5536 5536 5534 5538 5541 5541 5545 5553 5552 5552 5552 5558 5566 5569 5578 5584 5589 5596 5600 5607 5611 5615 5614 5617 5619 5621 5623 5629 5636 5644 5647 5646
5525 5526 5527 5527 5527 5528 5529 5525 5521 5522 5523 5530 5528 5529 5530 5530 5530 5538 5546 5548 5545 5541 5542 5530 5538 5541 5539 5541 5544 5545 5546 5551 5556 5561 5566 5571 5577 5586 5592 5596 5601 5606 5610 5613 5615 5617 5618 5620 5623 5627 5633 5638 5641 5642
5516 5518 5518 5518 5519 5519 5520 5516 5514 5523 5533 5528 5525 5532 5528 5532 5534 5535 5538 5538 5539 5534 5530 5537 5536 5538 5536 5535 5539 5540 5547 5556 5560 5564 5570 5577 5583 5592 5594 5596 5601 5604 5609 5613 5614 5615 5617 5617 5617 5619 5625 5631 5635 5637
5506 5509 5510 5509 5507 5506 5508 5513 5510 5515 5522 5522 5522 5524 5528 5532 5535 5539 5539 5542 5538 5535 5535 5534 5534 5532 5536 5538 5541 5548 5554 5561 5566 5571 5573 5581 5585 5591 5598 5598 5600 5603 5606 5608 5610 5610 5613 5616 5616 5617 5621 5625 5626 5630
5501 5503 5504 5502 5499 5497 5503 5508 5510 5516 5522 5524 5520 5524 5527 5532 5538 5538 5541 5541 5538 5533 5531 5534 5532 5543 5547 5553 5555 5556 5564 5565 5564 5568 5578 5584 5590 5597 5600 5600 5601 5603 5603 5609 5611 5610 5614 5615 5615 5616 5616 5619 5624 5625
5495 5497 5497 5496 5492 5491 5494 5499 5504 5515 5517 5517 5523 5522 5528 5527 5530 5532 5533 5534 5537 5538 5532 5533 5540 5550 5554 5557 5558 5562 5565 5568 5572 5571 5578 5585 5594 5592 5596 5599 5603 5604 5605 5607 5607 5610 5611 5612 5614 5615 5615 5616 5619 5620
5489 5491 5490 5490 5489 5493 5494 5497 5500 5506 5508 5516 5516 5517 5521 5527 5534 5540 5536 5540 5532 5535 5532 5536 5541 5547 5553 5559 5563 5567 5570 5574 5577 5577 5577 5580 5587 5593 5596 5597 5602 5603 5604 5606 5606 5607 5609 5610 5611 5613 5614 5615 5618 5619
5485 5486 5486 5487 5491 5491 5497 5497 5502 5509 5513 5520 5517 5523 5525 5528 5536 5543 5545 5542 5542 5542 5542 5544 5548 5551 5554 5560 5564 5569 5573 5576 5578 5580 5582 5585 5590 5591 5593 5597 5600 5601 5603 5607 5607 5608 5609 5608 5611 5611 5612 5613 5614 5614
5481 5483 5484 5490 5493 5494 5498 5501 5501 5509 5524 5526 5524 5528 5531 5530 5534 5538 5543 5543 5541 5541 5541 5543 5546 5552 5557 5561 5562 5565 5569 5575 5579 5584 5584 5587 5590 5592 5592 5594 5596 5600 5600 5601 5604 5604 5606 5607 5607 5609 5608 5608 5607 5606
5473 5480 5480 5481 5491 5498 5510 5509 5514 5520 5527 5525 5525 5525 5530 5530 5532 5544 5541 5541 5542 5541 5542 5543 5546 5551 5552 5556 5560 5565 5570 5573 5576 5578 5582 5585 5585 5590 5591 5593 5594 5594 5595 5599 5600 5600 5599 5599 5599 5600 5599 5599 5599 5599
5478 5486 5480 5491 5495 5492 5499 5508 5521 5521 5521 5521 5519 5517 5518 5526 5538 5542 5538 5538 5542 5545 5547 5548 5548 5550 5556 5555 5557 5564 5569 5572 5572 5575 5579 5582 5583 5584 5584 5585 5586 5589 5589 5591 5594 5594 5593 5592 5592 5591 5589 5588 5583 5590
5483 5490 5487 5489 5492 5502 5505 5512 5513 5513 5515 5515 5510 5515 5520 5534 5535 5538 5537 5540 5542 5547 5548 5548 5547 5548 5551 5555 5559 5565 5570 5572 5573 5577 5579 5581 5581 5581 5582 5582 5582 5584 5585 5586 5587 5588 5586 5584 5583 5583 5581 5579 5578 5578
5483 5488 5489 5492 5490 5491 5501 5503 5509 5515 5516 5504 5502 5513 5527 5536 5537 5541 5539 5544 5545 5548 5548 5549 5550 5552 5558 5560 5559 5561 5567 5569 5573 5574 5575 5577 5575 5574 5575 5576 5578 5577 5578 5578 5579 5579 5577 5575 5573 5571 5570 5567 5565 5565
5483 5486 5486 5489 5490 5492 5499 5504 5513 5516 5518 5514 5516 5521 5522 5526 5532 5540 5543 5546 5546 5546 5548 5551 5554 5553 5558 5561 5561 5562 5564 5568 5571 5569 5568 5566 5568 5570 5569 5570 5571 5572 5571 5570 5566 5568 5568 5566 5562 5559 5556 5554 5551 5550
5487 5486 5487 5493 5497 5502 5510 5510 5511 5513 5513 5515 5514 5513 5517 5522 5532 5538 5542 5545 5547 5553 5555 5554 5552 5551 5553 5558 5560 5560 5559 5561 5564 5566 5565 5563 5562 5560 5562 5564 5563 5562 5561 5560 5558 5555 5552 5552 5549 5548 5545 5542 5540 5538
5491 5488 5492 5496 5504 5513 5518 5518 5515 5511 5509 5509 5510 5512 5520 5526 5534 5543 5551 5555 5555 5553 5552 5553 5554 5555 5557 5559 5556 5557 5559 5557 5557 5558 5557 5556 5556 5556 5555 5554 5553 5551 5549 5547 5544 5541 5539 5537 5535 5532 5530 5528 5526 5526
5497 5500 5504 5510 5513 5521 5521 5516 5516 5517 5519 5521 5526 5528 5531 5532 5540 5552 5558 5555 5555 5556 5555 5559 5560 5558 5557 5557 5555 5554 5552 5551 5551 5551 5551 5549 5548 5546 5545 5543 5541 5538 5535 5532 5530 5527 5524 5522 5519 5517 5514 5512 5511 5510
5508 5514 5513 5515 5524 5528 5524 5523 5523 5525 5528 5531 5536 5539 5543 5547 5552 5556 5558 5559 5561 5561 5561 5560 5558 5556 5555 5553 5550 5547 5546 5545 5543 5542 5542 5541 5539 5537 5535 5532 5530 5527 5524 5520 5516 5513 5510 5507 5504 5502 5500 5498 5497 5497